星链-36270(STARLINK-36270)

导读 | 豆包AI

STARLINK-36270是美国于2025年12月17日发射的星链卫星,隶属于SpaceX星链星座项目。星链项目旨在构建全球卫星互联网星座,为全球偏远地区等提供高速低延迟网络服务,该卫星是星链大规模组网进程中的一员,将服务项目全球覆盖目标。

基本信息
目录编号:
67200
目录名称:
STARLINK-36270
国际标识:
2025-304J
轨道中心:
EARTH
卫星名称:
星链-36270
卫星全名:
星链-36270(STARLINK-36270)
卫星状态:
在轨 (已飞行87 天)
发射日期:
2025-12-17 UTC
国别 :
美国 (US)
星等 :
--
轨道信息
数据来源 国际轨道数据
星历时间: 2026-03-13T08:19:01+0800
1天前
查看轨道信息
半长轴: 6949.096km
偏心率: 0.0003898
轨道倾角: 70.003°
近地点辐角 341.512°
升交点赤经 166.040°
平近点角 18.590°
近地点: 568.25km
远地点: 573.668km
周期: 96.084分钟
每日圈数: 14.986848
详细信息
固有亮度:
5
最大亮度:
2.5
卫星平台:
Starlink V1.0
覆盖范围:
全球
运营商:
太空探索技术公司
运营商所在国:
美国
制造商(研发单位):
太空探索技术公司
制造商所在国:
美国
使用方式:
暂无
卫星简介
Starlink 计划是 SpaceX 推出的全球卫星互联网项目,通过发射低轨道卫星,为全球尤其是偏远地区提供高速、低延迟的互联网服务。自 2019 年起,Starlink 已部署数千颗卫星,旨在缩小全球数字鸿沟,推动互联网普及。该项目还为军事、航空等行业提供通信支持,带来广泛经济效益。
2D轨道图
3D轨道图
轨道高度分析图
轨道倾角分析图
轨道综合分析图
查看轨道综合分析图